Regional Weather Roundup
Issued by NWS Cleveland, OH

Home | Current Version | Previous Version | Text Only | Print | Product List | Glossary Off
Versions: 1 2 3 4 5 6 7 8 9 10 11 12 13 14 15 16 17 18 19 20 21 22 23 24 25 26 27 28 29 30 31 32 33 34 35 36 37 38 39 40 41 42 43 44 45 46 47 48 49 50

000
ASUS41 KCLE 272300
RWRCLE
OHIO REGIONAL WEATHER ROUNDUP
NATIONAL WEATHER SERVICE WILMINGTON, OH
600 PM EST FRI FEB 27 2015

NOTE: "FAIR" INDICATES FEW OR NO CLOUDS BELOW 12,000 FEET WITH NO
SIGNIFICANT WEATHER AND/OR OBSTRUCTIONS TO VISIBILITY.

OHZ001>008-015>018-024>027-034-035-043-044-280000-
   NORTHWEST OHIO

CITY           SKY/WX    TMP DP  RH WIND       PRES   REMARKS
DEFIANCE       CLEAR     15  -1  49 S7        30.60S WCI   5
FINDLAY        CLEAR     12  -3  51 SW5       30.60R WCI   4
TOLEDO EXPRESS CLEAR     14  -2  49 SW7       30.59S WCI   4
TOLEDO EXEC    CLEAR     13  -2  51 SW8       30.61R WCI   2
LIMA           CLEAR     15  -4  42 N7        30.58R WCI   5
$$

OHZ009>014-019>023-028>033-038-089-280000-
   NORTHEAST OHIO

CITY           SKY/WX    TMP DP  RH WIND       PRES   REMARKS
CLE-HOPKINS    PTCLDY    12  -2  53 SW8       30.62R WCI   0
CLE-LAKEFRONT  CLEAR     13   3  64 MISG      30.61R
CUY CO. ARPT   PTCLDY    14   3  62 NW9       30.59R WCI   2
LORAIN-ELYRIA  CLEAR     11  -1  58 W6        30.60R WCI   1
ASHTABULA      CLEAR     11  -5  48 NW6       30.58R WCI   1
AKRON-CANTON   PTCLDY    13  -4  46 W5        30.55S WCI   5
WOOSTER        NOT AVBL
MANSFIELD      CLEAR     12  -1  56 W6        30.55R WCI   3
YOUNGSTOWN     PTCLDY    13  -3  49 W7        30.54R WCI   3
$$

OHZ042-051>053-060>062-070>072-077>081-280000-
  SOUTHWEST OHIO

CITY           SKY/WX    TMP DP  RH WIND       PRES   REMARKS
CINC-COVINGTON PTCLDY    21   2  43 N6        30.58R WCI  13
CINC-LUNKEN    CLEAR     20   0  41 N5        30.64R WCI  13
HAMILTON       CLEAR     20   0  41 N5        30.63R WCI  13
DAYTON         NOT AVBL
WRIGHT-PAT AFB NOT AVBL
DAYTON GENERAL CLEAR     18   0  45 CALM      30.58S
WILMINGTON     PTCLDY    14  -2  49 VRB3      30.58R
$$

OHZ036-037-039>041-045>050-054>059-063>069-073>076-082>088-280000-
  CENTRAL AND SOUTHEAST OHIO

CITY           SKY/WX    TMP DP  RH WIND       PRES   REMARKS
COLUMBUS       PTCLDY    16  -2  45 NW8       30.60R WCI   5
OSU AIRPORT    PTCLDY    14  -3  47 N7        30.59R WCI   4
BOLTON FIELD   NOT AVBL
RICKENBACK AFB NOT AVBL
NEWARK         CLEAR     13  -1  54 NW5       30.58S WCI   5
MARION         CLEAR     13  -3  49 W5        30.58S WCI   5
LANCASTER      CLEAR     16  -1  47 W7        30.60R WCI   6
ZANESVILLE     CLOUDY    16   0  49 CALM      30.59R
NEW PHILLY     CLEAR     17  -2  43 W7        30.59R WCI   8
$$


USA.gov is the U.S. government's official web portal to all federal, state and local government web resources and services.